Temp
10 10 10 10 10 10 10 10 10 10 10 10 10 10 10 10 10 10 10 9 9 10 10 10 10 10 10 10 10 10 10 10 10 10 10 10 10 9 9 9 9 9
10 10 10 10 10 10 10 10 10 10 10 10 10 10 10 10 10 10 10 10 10 10 10 10 10 10 10 10 10 10 10 10 10 10 10 10 10 10 9 10 10 10
10 10 10 10 10 10 10 10 10 10 10 10 10 10 10 10 10 10 10 10 10 10 10 10 10 10 10 10 10 10 10 10 10 10 10 10 10 10 9 10 10 10
10 10 10 10 10 10 10 10 10 10 10 10 10 10 10 10 10 10 10 10 10 10 10 10 10 10 10 10 10 10 10 10 10 10 10 10 10 10 9 10 10 10
11 10 10 10 10 10 10 10 10 10 10 10 10 10 10 10 10 10 10 10 10 10 10 10 10 10 10 10 10 10 10 10 10 10 10 10 10 10 10 10 10 10
11 11 10 10 10 10 10 10 10 10 10 10 10 10 10 10 10 10 10 10 10 10 10 10 10 10 10 10 10 10 10 10 10 10 10 10 10 10 10 10 10 10
11 11 11 10 10 10 10 10 10 10 10 10 10 10 10 10 10 10 10 10 10 10 10 10 10 10 10 10 10 10 10 10 10 10 10 10 10 10 10 10 10 10
11 11 11 11 11 10 10 10 10 10 10 10 10 10 10 10 10 10 10 10 10 10 10 10 10 10 10 10 10 10 10 10 10 10 10 10 10 10 10 10 10 10
11 11 11 11 11 11 10 10 10 10 10 10 10 10 10 10 10 10 10 10 10 10 10 10 10 10 10 10 10 10 10 10 10 10 10 10 10 10 10 10 10 10
11 11 11 11 11 11 11 10 10 10 10 10 10 10 10 10 10 10 10 10 10 10 10 10 10 10 10 10 10 10 10 10 10 10 10 10 10 10 10 10 10 10
11 11 11 11 11 11 11 11 10 10 10 10 10 10 10 10 10 10 10 10 10 10 10 10 10 10 10 10 10 10 10 10 10 10 10 10 10 10 10 10 10 10
11 11 11 11 11 11 11 10 10 10 10 10 10 10 10 10 10 10 11 11 10 10 10 10 10 10 10 10 10 10 10 10 10 10 10 10 10 10 10 10 10 10
11 11 11 11 11 10 10 10 10 10 10 10 10 10 11 11 11 11 11 11 11 10 10 11 10 10 10 10 10 10 10 10 10 10 10 10 10 10 10 10 10 10
10 10 10 10 10 10 10 10 10 10 10 10 10 10 10 10 10 11 11 11 11 11 11 11 11 11 10 10 10 10 10 10 10 10 10 10 10 10 10 10 10 10
10 10 10 10 10 10 10 10 10 10 10 10 10 10 10 10 10 10 10 10 10 10 11 11 11 11 11 11 10 10 10 10 10 10 10 10 10 10 10 10 10 10
10 10 10 10 10 10 10 10 10 10 10 10 10 10 10 10 10 10 10 10 10 10 11 11 11 11 11 11 11 10 10 10 10 10 10 10 10 10 10 10 10 10
10 10 10 10 10 10 10 10 10 10 10 10 10 10 10 10 10 10 10 10 10 11 11 11 11 11 11 11 11 11 10 10 10 10 10 10 10 10 10 10 10 10
11 10 10 10 10 10 10 10 10 10 10 11 11 11 10 10 10 10 10 10 10 11 11 11 11 11 11 11 11 11 11 10 10 10 10 11 10 11 11 10 10 10
10 10 10 10 10 10 10 10 10 10 10 11 11 11 11 10 10 10 10 10 10 10 11 11 11 11 11 11 11 11 11 11 11 11 11 11 11 11 11 11 11 11
11 10 11 11 11 11 11 10 10 10 10 10 10 10 10 11 11 11 10 10 10 10 10 11 11 11 11 11 11 11 11 11 11 11 11 11 11 11 11 11 11 11
11 10 11 11 11 11 11 11 11 11 11 10 10 10 10 11 11 11 11 11 11 10 10 10 11 11 11 11 11 11 11 11 11 11 11 11 11 11 11 11 11 11
11 11 11 11 11 11 11 11 11 11 11 11 10 10 10 11 11 11 11 11 11 11 11 11 11 11 11 11 11 11 11 11 11 11 11 11 11 11 11 11 11 11
11 11 11 11 11 11 11 11 11 11 11 11 11 11 11 11 12 12 12 12 12 11 11 11 11 11 11 11 11 11 11 11 11 11 11 11 11 11 11 11 11 11
10 10 11 11 11 11 11 11 11 11 11 11 11 11 11 11 11 11 12 12 12 12 12 12 12 11 11 11 11 11 11 11 11 11 11 11 11 11 12 12 12 12
11 10 10 11 11 11 11 11 11 11 11 11 11 11 11 11 11 11 11 12 12 13 13 12 12 12 12 11 11 11 11 11 11 11 11 11 11 12 12 12 12 12
11 11 11 11 11 11 11 11 10 10 11 11 11 11 11 11 11 11 11 11 11 12 12 13 13 13 12 12 12 12 11 11 11 11 12 12 12 12 12 12 12 12
Height
3231 3232 3234 3235 3237 3238 3240 3241 3243 3244 3245 3246 3247 3247 3248 3249 3250 3251 3251 3251 3252 3252 3253 3253 3254 3255 3255 3256 3256 3256 3256 3256 3256 3257 3257 3258 3258 3259 3259 3260 3260 3261
3230 3231 3233 3234 3236 3237 3239 3240 3242 3243 3245 3246 3246 3247 3248 3248 3249 3250 3251 3251 3252 3252 3252 3253 3254 3255 3255 3256 3256 3256 3256 3256 3257 3257 3257 3258 3258 3259 3259 3260 3260 3261
3229 3230 3232 3233 3235 3236 3238 3239 3240 3242 3244 3245 3246 3246 3247 3248 3249 3249 3250 3251 3251 3252 3252 3253 3253 3254 3255 3255 3256 3256 3256 3257 3256 3257 3257 3258 3258 3259 3259 3260 3260 3261
3227 3229 3231 3232 3234 3235 3236 3238 3239 3241 3242 3244 3245 3246 3246 3247 3248 3248 3249 3250 3250 3251 3252 3252 3253 3254 3254 3255 3255 3256 3256 3256 3256 3257 3257 3258 3258 3259 3259 3260 3260 3260
3226 3228 3230 3231 3232 3233 3235 3236 3238 3240 3241 3243 3244 3245 3246 3246 3247 3248 3248 3249 3250 3250 3251 3252 3252 3253 3254 3254 3255 3255 3256 3256 3256 3257 3257 3257 3258 3258 3259 3259 3260 3260
3225 3227 3228 3230 3231 3232 3233 3235 3237 3238 3240 3241 3243 3244 3245 3245 3246 3247 3247 3248 3249 3250 3251 3251 3252 3252 3253 3254 3254 3255 3255 3256 3256 3256 3257 3257 3257 3258 3258 3259 3259 3260
3224 3225 3227 3228 3230 3231 3232 3234 3235 3236 3238 3239 3241 3242 3243 3244 3245 3246 3246 3247 3248 3249 3250 3250 3251 3252 3252 3253 3253 3254 3255 3255 3256 3256 3256 3257 3257 3257 3258 3258 3259 3259
3222 3223 3225 3227 3228 3229 3231 3232 3233 3235 3236 3237 3239 3240 3242 3243 3244 3245 3245 3246 3247 3248 3248 3249 3250 3251 3252 3252 3253 3253 3254 3254 3255 3255 3256 3256 3256 3257 3257 3258 3258 3258
3220 3222 3223 3225 3226 3228 3229 3231 3232 3233 3234 3235 3237 3238 3240 3241 3242 3243 3244 3245 3246 3247 3248 3248 3249 3250 3251 3251 3252 3252 3253 3253 3254 3254 3255 3255 3256 3256 3256 3257 3257 3257
3218 3220 3221 3223 3224 3226 3228 3229 3231 3231 3232 3234 3235 3236 3238 3239 3240 3241 3242 3244 3245 3246 3247 3248 3248 3249 3249 3250 3251 3251 3252 3252 3253 3253 3254 3254 3255 3255 3255 3256 3256 3256
3216 3218 3219 3221 3223 3224 3226 3228 3229 3230 3231 3232 3233 3234 3235 3237 3238 3239 3240 3242 3243 3244 3245 3246 3247 3248 3248 3249 3250 3250 3250 3251 3251 3252 3253 3253 3254 3254 3255 3255 3255 3255
3214 3216 3217 3219 3221 3223 3224 3225 3227 3228 3229 3230 3231 3232 3233 3235 3236 3237 3238 3240 3241 3242 3243 3244 3245 3246 3247 3247 3248 3249 3249 3250 3250 3250 3251 3252 3252 3253 3253 3254 3254 3254
3211 3213 3215 3217 3219 3220 3222 3223 3225 3226 3227 3228 3229 3230 3231 3232 3233 3235 3236 3237 3239 3240 3241 3242 3243 3244 3245 3245 3246 3247 3248 3248 3249 3249 3249 3250 3251 3251 3252 3252 3253 3253
3209 3211 3213 3215 3216 3218 3219 3221 3222 3223 3225 3226 3227 3228 3229 3230 3231 3232 3234 3235 3236 3238 3239 3240 3240 3241 3242 3243 3244 3244 3245 3246 3247 3248 3248 3248 3249 3249 3250 3250 3251 3251
3206 3207 3209 3211 3213 3215 3217 3218 3220 3221 3222 3223 3224 3226 3227 3228 3229 3230 3231 3232 3234 3235 3236 3237 3238 3239 3239 3241 3242 3242 3243 3244 3245 3246 3246 3247 3247 3247 3248 3248 3249 3249
3202 3204 3206 3208 3210 3212 3214 3216 3217 3218 3219 3221 3222 3223 3224 3225 3226 3227 3228 3230 3231 3232 3233 3234 3235 3236 3237 3238 3240 3240 3241 3242 3243 3243 3244 3244 3245 3245 3246 3246 3247 3247
3198 3200 3203 3205 3207 3209 3210 3212 3214 3215 3216 3217 3219 3220 3222 3223 3224 3224 3226 3227 3228 3229 3230 3231 3232 3233 3234 3236 3237 3238 3239 3239 3240 3240 3241 3242 3242 3242 3243 3244 3244 3244
3194 3197 3199 3201 3203 3205 3207 3209 3210 3211 3212 3214 3216 3217 3218 3219 3221 3222 3223 3224 3225 3226 3227 3228 3229 3230 3232 3234 3235 3236 3236 3237 3237 3238 3238 3238 3239 3239 3240 3241 3241 3242
3191 3193 3195 3197 3199 3201 3203 3204 3206 3207 3208 3210 3212 3213 3214 3215 3217 3218 3219 3221 3221 3222 3224 3225 3226 3227 3229 3231 3232 3233 3234 3234 3234 3235 3235 3235 3236 3236 3237 3237 3238 3239
3188 3189 3191 3193 3195 3197 3198 3200 3202 3203 3205 3206 3207 3208 3209 3211 3213 3214 3215 3217 3218 3219 3220 3222 3223 3224 3226 3228 3229 3230 3231 3231 3231 3231 3232 3232 3232 3233 3234 3234 3235 3235
3183 3185 3187 3190 3191 3193 3194 3196 3198 3200 3201 3203 3204 3204 3205 3207 3209 3210 3211 3212 3214 3216 3217 3218 3219 3221 3223 3224 3226 3227 3228 3228 3228 3228 3228 3228 3229 3230 3230 3231 3232 3232
3179 3181 3184 3186 3188 3190 3191 3193 3195 3197 3198 3199 3200 3201 3202 3204 3205 3206 3207 3208 3210 3211 3212 3214 3216 3218 3219 3221 3223 3224 3224 3224 3224 3224 3224 3224 3225 3226 3227 3228 3228 3229
3174 3177 3179 3182 3184 3186 3188 3189 3191 3193 3194 3195 3196 3197 3199 3200 3202 3203 3203 3204 3205 3206 3207 3209 3212 3214 3215 3217 3219 3220 3220 3220 3220 3220 3220 3221 3221 3222 3223 3224 3225 3225
3171 3173 3176 3178 3180 3182 3184 3186 3187 3189 3190 3191 3193 3194 3195 3197 3198 3199 3200 3200 3201 3202 3203 3205 3207 3209 3211 3213 3215 3216 3216 3216 3216 3216 3216 3217 3218 3219 3219 3220 3221 3222
3170 3172 3173 3174 3176 3178 3180 3182 3183 3185 3186 3187 3189 3190 3191 3193 3194 3195 3196 3197 3198 3199 3200 3201 3203 3205 3206 3208 3210 3212 3212 3213 3213 3213 3213 3214 3215 3216 3216 3216 3217 3218
3167 3170 3171 3172 3174 3175 3177 3178 3179 3181 3182 3183 3184 3186 3187 3189 3190 3190 3192 3193 3195 3196 3196 3197 3198 3200 3201 3203 3206 3207 3208 3209 3209 3209 3209 3211 3212 3212 3212 3212 3213 3214
Wind_Speed
22 21 21 20 19 18 17 16 15 15 14 14 13 13 12 12 11 11 11 11 10 9 9 8 8 7 6 5 5 5 5 4 4 5 6 7 7 6 6 7 8 8
22 22 22 21 20 19 18 17 17 16 15 15 15 14 14 13 12 12 11 11 11 10 9 9 8 8 7 6 5 5 5 5 4 5 5 6 7 6 6 6 6 7
21 22 23 22 21 20 20 20 19 17 17 16 16 15 15 14 13 13 12 12 11 11 10 10 9 9 8 7 6 6 5 5 5 5 5 5 6 6 6 6 5 6
21 21 22 23 22 22 22 22 21 19 18 17 17 16 16 15 15 14 13 13 12 12 11 11 11 10 9 8 7 7 6 5 5 5 4 4 5 6 6 6 6 6
21 21 21 23 24 24 24 23 22 21 20 19 18 18 17 17 16 15 14 13 13 12 12 12 12 11 10 9 9 8 7 6 5 5 5 4 5 5 6 6 6 6
23 22 22 22 23 24 25 24 23 23 22 21 20 19 18 18 18 17 16 15 14 13 13 12 12 12 11 11 10 9 8 7 7 6 6 6 5 5 6 6 6 6
23 23 23 22 23 24 25 25 25 25 24 23 22 21 20 19 18 18 17 16 16 15 14 13 13 13 12 12 11 10 10 9 8 8 7 7 7 7 7 6 6 6
23 23 24 24 23 23 24 26 27 26 26 25 24 23 22 20 19 19 19 18 17 17 16 15 14 13 13 13 12 12 11 10 10 10 9 9 8 8 8 8 7 7
24 24 24 24 24 24 24 24 26 27 27 27 26 25 24 23 22 21 20 19 18 17 17 16 15 14 14 14 14 14 13 12 12 11 11 10 10 10 10 9 9 9
26 25 25 24 24 24 24 24 24 25 27 28 28 27 27 25 24 23 22 21 20 18 17 17 16 16 15 15 15 15 15 14 13 13 12 12 12 12 12 11 11 10
28 27 26 25 24 23 23 23 23 24 25 27 28 28 28 27 26 26 25 23 22 21 19 19 18 18 17 17 17 17 16 16 15 14 14 13 13 13 13 13 12 12
29 29 28 26 25 24 23 23 24 24 24 25 26 28 28 28 27 27 26 24 23 23 22 21 21 20 20 19 19 19 18 18 17 16 16 15 15 15 15 14 14 14
29 29 29 28 27 26 25 24 24 25 25 24 26 27 28 28 28 28 27 25 24 24 24 23 23 23 23 22 21 21 21 21 20 19 18 18 17 17 17 16 16 15
30 29 29 29 29 28 27 26 26 25 25 25 26 27 28 28 28 28 28 27 26 26 26 26 25 25 25 24 24 24 23 23 23 22 21 21 20 19 19 19 18 17
31 31 30 30 30 30 29 28 28 27 27 27 27 27 28 28 28 28 28 28 28 27 27 27 27 27 27 27 26 26 25 25 25 25 24 24 23 23 22 22 21 20
32 32 32 31 30 30 30 29 29 29 29 28 28 28 28 29 30 30 29 29 28 28 28 28 28 28 27 27 26 26 26 26 27 27 27 27 26 26 25 25 23 22
32 32 32 31 31 30 30 29 29 30 30 30 29 29 29 29 30 31 32 31 30 30 30 29 29 28 27 26 25 26 26 27 28 28 28 29 29 29 28 27 27 26
34 33 33 32 32 31 30 30 30 30 31 31 30 30 30 30 30 31 32 33 33 33 32 32 31 30 28 26 25 26 26 27 28 28 29 30 30 31 30 30 29 29
35 35 35 33 33 32 32 32 31 31 32 31 31 31 32 32 31 31 32 32 33 34 34 34 33 32 31 29 28 28 28 29 29 29 30 30 30 31 31 30 30 30
35 36 37 36 35 34 34 34 33 32 32 31 31 32 33 33 32 33 33 33 33 34 34 34 34 34 33 31 31 31 31 31 32 32 32 32 31 31 31 30 30 31
34 35 37 37 37 36 36 35 34 33 33 32 32 33 34 33 33 34 34 34 34 33 34 34 33 33 32 31 30 30 31 32 34 34 35 34 33 32 31 31 30 31
35 35 35 36 37 37 36 36 35 35 34 34 35 36 35 34 34 35 35 35 34 34 34 34 33 32 31 30 29 29 30 32 33 34 35 35 34 33 32 31 31 31
34 35 35 35 37 38 38 37 36 36 36 37 37 37 37 36 35 35 36 36 35 35 35 35 33 32 32 31 30 30 31 32 33 33 34 34 33 33 32 32 32 32
30 32 35 36 37 38 39 38 38 38 38 38 38 38 38 37 37 37 37 37 36 36 35 34 33 33 33 32 32 32 33 34 34 34 34 33 32 32 32 32 32 31
29 29 31 34 36 37 37 37 37 37 38 38 38 38 38 38 38 39 38 37 37 37 36 35 34 33 33 33 33 33 34 34 35 35 35 33 32 32 31 32 32 31
33 32 30 30 31 32 34 35 35 36 36 37 38 38 38 38 38 39 38 37 37 38 38 37 36 35 35 34 33 34 34 35 36 36 35 34 33 32 32 32 32 31
Wind_Direction
206 205 204 203 204 205 204 204 207 208 206 201 194 190 190 189 187 186 186 184 182 176 169 164 162 167 173 167 157 147 142 144 142 140 144 146 149 155 163 166 169 171
207 207 207 207 206 207 207 207 209 210 211 209 202 197 197 195 193 191 192 191 189 185 179 174 171 173 176 173 167 160 152 150 147 141 142 146 149 155 163 168 174 176
209 209 210 211 209 208 209 209 209 210 212 213 210 205 202 201 200 198 197 196 196 194 191 186 181 181 182 179 175 170 163 160 160 155 152 153 152 156 167 177 183 185
208 210 210 212 211 210 211 211 210 210 213 215 215 213 209 206 206 204 203 202 201 201 199 196 191 188 188 187 185 180 174 172 172 167 168 168 161 161 174 187 195 196
208 209 210 212 212 212 213 213 212 212 213 215 218 219 216 212 209 208 208 208 207 206 205 204 200 197 196 195 195 193 187 185 186 183 184 186 178 173 178 187 197 202
210 209 210 212 214 214 214 214 215 215 215 215 218 222 221 218 214 212 211 211 213 213 212 211 208 205 205 204 204 204 201 199 200 199 199 200 199 194 191 193 197 202
213 212 212 213 215 215 214 215 216 217 218 217 219 221 224 223 221 218 215 214 216 218 217 218 217 213 212 212 213 214 212 210 209 210 211 211 212 213 212 210 206 205
217 214 214 215 216 217 216 216 218 219 220 220 221 222 224 226 227 225 223 221 221 221 219 221 222 221 220 219 219 222 222 219 217 218 221 222 223 225 225 224 223 220
220 217 215 216 218 219 218 219 220 221 222 224 224 224 226 227 229 230 230 229 229 228 226 225 225 226 227 225 223 225 227 227 227 226 227 228 229 232 232 232 232 233
222 221 219 217 218 219 219 221 222 223 225 226 226 228 229 229 230 231 233 234 235 235 234 233 233 232 233 232 229 228 229 231 233 234 234 233 233 234 234 234 234 235
225 225 224 220 220 221 221 221 223 224 226 227 228 230 231 232 233 234 235 235 237 239 239 238 239 238 238 237 235 233 231 232 234 237 239 239 239 239 238 235 233 233
227 227 227 225 223 223 222 222 224 225 226 227 229 231 232 234 235 237 237 237 237 239 240 239 239 240 241 240 240 238 235 234 234 235 239 241 242 243 243 241 237 234
228 229 230 230 228 226 225 224 225 227 227 227 228 231 233 234 236 238 240 239 238 239 240 241 240 240 241 241 241 242 240 238 236 235 236 238 240 242 244 244 244 241
226 229 230 232 232 230 228 226 226 227 229 229 229 231 233 235 237 239 241 242 241 240 240 242 242 241 241 242 242 243 243 242 241 239 238 238 238 240 242 244 245 245
223 226 229 231 233 233 231 230 229 229 230 231 231 231 233 236 237 239 241 242 242 241 241 242 243 242 242 243 244 245 245 246 246 244 243 242 241 241 243 244 245 246
218 222 226 229 231 233 233 232 232 232 232 233 234 233 233 236 238 239 241 242 242 242 241 242 244 244 244 244 245 246 247 247 248 247 247 246 245 244 244 245 246 248
215 218 222 226 228 229 231 232 233 235 235 234 235 236 236 237 238 240 242 243 243 243 243 243 245 246 246 245 244 245 247 247 249 250 249 249 248 247 246 245 246 248
215 215 218 222 225 226 228 230 231 233 235 236 236 236 237 237 239 241 242 244 245 245 245 244 245 246 247 247 245 245 246 248 250 252 252 251 250 249 248 247 247 247
215 215 215 218 222 224 226 227 228 230 234 235 235 236 237 237 238 240 241 243 245 247 248 248 248 248 248 248 247 247 248 249 251 254 254 255 254 253 252 251 249 249
215 216 216 217 219 222 225 226 226 229 232 233 233 234 236 236 237 239 240 241 243 246 249 250 251 251 250 249 248 248 249 250 252 254 256 256 257 257 256 256 254 253
215 216 218 219 220 222 226 228 227 228 230 231 232 234 236 236 236 237 239 240 241 244 247 249 251 252 252 251 250 249 250 251 252 254 255 256 257 257 258 258 259 258
214 215 217 219 221 223 226 228 229 229 229 230 232 235 238 238 238 238 240 241 241 241 243 246 249 252 253 252 251 249 249 249 251 252 254 256 256 257 258 258 258 260
214 215 216 218 220 223 226 228 230 230 230 231 232 234 237 240 241 241 241 242 243 242 242 244 246 249 251 252 250 249 247 248 250 251 253 254 256 256 257 257 257 258
216 216 216 217 219 222 225 227 229 231 232 233 234 236 238 240 242 243 244 245 245 244 244 244 245 246 247 248 248 248 248 248 250 251 252 253 254 255 256 256 256 256
224 223 219 218 220 223 225 227 229 230 232 233 235 238 240 241 242 243 245 248 250 250 247 245 244 245 246 246 246 247 248 248 250 251 252 253 254 255 255 256 256 255
225 229 229 227 227 227 227 228 230 231 233 235 236 237 239 241 242 244 246 248 251 253 253 250 246 244 244 246 246 245 246 248 249 251 252 254 255 255 255 256 256 256